QPF
0.00 0.00 0.00 0.00 0.00 0.00 0.00 0.00 0.00 0.00 0.00 0.00 0.00 0.00 0.00 0.00 0.00 0.00 0.00 0.00 0.00 0.00 0.00 0.00 0.00 0.00 0.00 0.00 0.00 0.00 0.00 0.00 0.00 0.00 0.00 0.00 0.00 0.00 0.00 0.00 0.04 0.01 0.00
0.00 0.00 0.00 0.00 0.00 0.00 0.00 0.00 0.00 0.00 0.00 0.00 0.00 0.00 0.00 0.00 0.00 0.00 0.00 0.00 0.00 0.00 0.00 0.00 0.00 0.00 0.00 0.00 0.00 0.00 0.00 0.00 0.00 0.00 0.00 0.00 0.00 0.00 0.00 0.00 0.03 0.01 0.00
0.00 0.00 0.00 0.00 0.00 0.00 0.00 0.00 0.00 0.00 0.00 0.00 0.00 0.00 0.00 0.00 0.00 0.00 0.00 0.00 0.00 0.00 0.00 0.00 0.00 0.00 0.00 0.00 0.00 0.00 0.00 0.00 0.00 0.00 0.00 0.01 0.00 0.00 0.00 0.00 0.00 0.00 0.00
0.00 0.00 0.00 0.00 0.00 0.00 0.00 0.00 0.00 0.00 0.00 0.00 0.00 0.00 0.00 0.00 0.00 0.00 0.00 0.00 0.00 0.00 0.00 0.00 0.00 0.00 0.00 0.00 0.00 0.00 0.00 0.00 0.00 0.00 0.01 0.03 0.00 0.00 0.00 0.00 0.00 0.00 0.00
0.00 0.00 0.00 0.00 0.00 0.00 0.00 0.00 0.00 0.00 0.00 0.00 0.00 0.00 0.00 0.00 0.00 0.00 0.00 0.00 0.00 0.00 0.00 0.00 0.00 0.00 0.00 0.00 0.00 0.00 0.00 0.00 0.00 0.00 0.00 0.00 0.01 0.01 0.00 0.00 0.00 0.00 0.00
0.00 0.00 0.00 0.00 0.00 0.00 0.00 0.00 0.00 0.00 0.00 0.00 0.00 0.00 0.00 0.01 0.01 0.00 0.00 0.00 0.00 0.00 0.00 0.00 0.00 0.00 0.00 0.00 0.00 0.00 0.01 0.01 0.00 0.00 0.00 0.00 0.02 0.03 0.00 0.00 0.00 0.00 0.00
0.00 0.00 0.00 0.00 0.00 0.00 0.00 0.00 0.00 0.00 0.00 0.00 0.00 0.00 0.00 0.01 0.01 0.01 0.00 0.00 0.00 0.00 0.00 0.00 0.00 0.00 0.00 0.00 0.00 0.00 0.00 0.00 0.01 0.02 0.03 0.03 0.07 0.07 0.04 0.03 0.04 0.03 0.02
0.00 0.00 0.00 0.00 0.00 0.00 0.00 0.00 0.00 0.00 0.00 0.00 0.00 0.00 0.00 0.00 0.00 0.00 0.00 0.00 0.01 0.02 0.01 0.00 0.00 0.00 0.00 0.00 0.00 0.00 0.00 0.00 0.00 0.00 0.01 0.03 0.10 0.11 0.09 0.05 0.05 0.05 0.05
0.00 0.00 0.00 0.00 0.00 0.00 0.00 0.00 0.00 0.00 0.00 0.00 0.00 0.00 0.00 0.00 0.00 0.00 0.00 0.00 0.01 0.02 0.02 0.02 0.00 0.00 0.00 0.00 0.00 0.00 0.00 0.00 0.00 0.01 0.00 0.00 0.02 0.02 0.03 0.04 0.04 0.05 0.05
0.00 0.00 0.00 0.00 0.00 0.00 0.00 0.00 0.01 0.01 0.01 0.01 0.00 0.00 0.00 0.00 0.00 0.01 0.01 0.01 0.01 0.01 0.02 0.02 0.02 0.02 0.02 0.02 0.03 0.01 0.00 0.00 0.00 0.00 0.00 0.01 0.02 0.02 0.02 0.02 0.01 0.03 0.03
0.00 0.00 0.00 0.00 0.00 0.00 0.00 0.00 0.00 0.00 0.00 0.00 0.01 0.01 0.00 0.01 0.04 0.05 0.07 0.10 0.08 0.04 0.03 0.03 0.04 0.06 0.05 0.02 0.03 0.08 0.06 0.01 0.00 0.00 0.00 0.00 0.01 0.01 0.00 0.01 0.00 0.00 0.01
0.00 0.00 0.00 0.00 0.00 0.00 0.00 0.00 0.00 0.00 0.00 0.00 0.01 0.04 0.03 0.03 0.05 0.03 0.10 0.12 0.08 0.05 0.02 0.02 0.08 0.07 0.02 0.00 0.12 0.32 0.16 0.03 0.02 0.02 0.01 0.01 0.00 0.01 0.00 0.00 0.00 0.00 0.00
0.00 0.00 0.00 0.00 0.00 0.00 0.00 0.00 0.00 0.00 0.01 0.02 0.02 0.02 0.05 0.04 0.04 0.02 0.02 0.04 0.06 0.05 0.04 0.07 0.11 0.03 0.01 0.01 0.05 0.13 0.13 0.04 0.02 0.03 0.06 0.07 0.03 0.01 0.00 0.00 0.00 0.00 0.00
0.00 0.00 0.00 0.00 0.00 0.01 0.01 0.01 0.01 0.02 0.02 0.03 0.06 0.05 0.07 0.05 0.03 0.02 0.02 0.01 0.03 0.04 0.09 0.07 0.06 0.05 0.05 0.02 0.02 0.03 0.08 0.12 0.06 0.06 0.13 0.11 0.04 0.02 0.02 0.01 0.01 0.00 0.01
0.00 0.00 0.00 0.00 0.00 0.01 0.01 0.02 0.01 0.01 0.01 0.01 0.05 0.05 0.05 0.04 0.02 0.02 0.01 0.00 0.01 0.04 0.09 0.08 0.06 0.05 0.05 0.04 0.03 0.02 0.02 0.04 0.07 0.08 0.14 0.08 0.04 0.03 0.02 0.01 0.01 0.01 0.01
0.00 0.00 0.00 0.00 0.00 0.01 0.01 0.01 0.01 0.01 0.01 0.01 0.02 0.03 0.04 0.03 0.03 0.03 0.02 0.01 0.01 0.01 0.01 0.04 0.06 0.07 0.08 0.10 0.05 0.01 0.01 0.01 0.03 0.05 0.05 0.13 0.13 0.04 0.03 0.01 0.00 0.01 0.01
0.00 0.00 0.00 0.00 0.01 0.02 0.02 0.02 0.02 0.01 0.01 0.01 0.01 0.01 0.03 0.05 0.07 0.06 0.06 0.04 0.02 0.03 0.05 0.05 0.05 0.06 0.04 0.04 0.04 0.04 0.03 0.02 0.02 0.04 0.04 0.08 0.11 0.05 0.04 0.02 0.01 0.01 0.01
0.01 0.01 0.01 0.01 0.01 0.03 0.04 0.04 0.02 0.02 0.01 0.01 0.00 0.00 0.02 0.04 0.08 0.11 0.11 0.08 0.08 0.13 0.16 0.16 0.15 0.13 0.09 0.06 0.04 0.04 0.03 0.03 0.02 0.03 0.02 0.03 0.04 0.02 0.06 0.10 0.04 0.01 0.01
0.01 0.02 0.02 0.02 0.03 0.05 0.07 0.06 0.05 0.04 0.03 0.02 0.01 0.00 0.01 0.01 0.02 0.06 0.06 0.09 0.15 0.18 0.20 0.19 0.13 0.13 0.12 0.11 0.09 0.10 0.06 0.02 0.01 0.00 0.00 0.00 0.01 0.01 0.01 0.08 0.03 0.03 0.03
0.01 0.04 0.07 0.09 0.11 0.10 0.08 0.10 0.11 0.12 0.12 0.11 0.08 0.05 0.02 0.01 0.02 0.03 0.02 0.02 0.05 0.09 0.12 0.17 0.18 0.19 0.18 0.18 0.09 0.06 0.02 0.01 0.00 0.00 0.00 0.00 0.00 0.00 0.00 0.01 0.08 0.08 0.06
0.02 0.03 0.05 0.06 0.06 0.05 0.04 0.04 0.08 0.11 0.16 0.19 0.18 0.15 0.11 0.09 0.08 0.08 0.06 0.05 0.04 0.06 0.08 0.09 0.12 0.17 0.18 0.19 0.13 0.06 0.01 0.00 0.00 0.00 0.00 0.00 0.00 0.00 0.00 0.00 0.02 0.05 0.17
0.01 0.01 0.01 0.01 0.01 0.01 0.01 0.02 0.03 0.06 0.09 0.11 0.11 0.12 0.10 0.11 0.12 0.09 0.06 0.06 0.06 0.08 0.11 0.10 0.11 0.15 0.18 0.22 0.16 0.10 0.04 0.01 0.00 0.00 0.00 0.00 0.00 0.00 0.00 0.00 0.00 0.04 0.12
0.00 0.00 0.00 0.00 0.01 0.01 0.00 0.01 0.02 0.03 0.03 0.04 0.04 0.05 0.06 0.09 0.11 0.10 0.07 0.07 0.08 0.10 0.17 0.21 0.23 0.25 0.21 0.22 0.20 0.15 0.08 0.03 0.02 0.00 0.00 0.00 0.00 0.00 0.00 0.00 0.02 0.06 0.13
0.00 0.00 0.00 0.00 0.01 0.01 0.01 0.01 0.02 0.03 0.03 0.03 0.03 0.04 0.05 0.06 0.07 0.06 0.08 0.16 0.19 0.22 0.26 0.26 0.27 0.30 0.28 0.24 0.22 0.18 0.12 0.09 0.07 0.02 0.00 0.00 0.01 0.01 0.02 0.03 0.02 0.04 0.10
0.00 0.00 0.00 0.00 0.00 0.01 0.02 0.02 0.02 0.01 0.01 0.01 0.03 0.04 0.04 0.04 0.03 0.02 0.02 0.06 0.14 0.21 0.26 0.27 0.27 0.29 0.31 0.27 0.22 0.18 0.14 0.13 0.10 0.06 0.01 0.02 0.06 0.07 0.07 0.07 0.05 0.03 0.02
0.00 0.00 0.00 0.00 0.00 0.00 0.01 0.02 0.03 0.02 0.02 0.03 0.04 0.05 0.06 0.05 0.03 0.02 0.01 0.03 0.07 0.09 0.11 0.17 0.19 0.21 0.21 0.20 0.19 0.18 0.14 0.09 0.07 0.09 0.06 0.05 0.06 0.10 0.12 0.12 0.13 0.08 0.05
MSLP
1008.98 1009.12 1009.48 1010.05 1010.75 1011.48 1012.14 1012.67 1013.04 1013.28 1013.43 1013.56 1013.73 1013.97 1014.28 1014.63 1014.97 1015.24 1015.41 1015.48 1015.47 1015.42 1015.37 1015.35 1015.40 1015.49 1015.63 1015.77 1015.90 1015.99 1016.06 1016.10 1016.14 1016.19 1016.28 1016.39 1016.52 1016.65 1016.77 1016.87 1016.94 1016.99 1017.03
1008.78 1009.08 1009.59 1010.28 1011.06 1011.82 1012.48 1012.96 1013.28 1013.45 1013.56 1013.68 1013.87 1014.15 1014.51 1014.90 1015.27 1015.56 1015.73 1015.79 1015.75 1015.67 1015.60 1015.58 1015.62 1015.72 1015.86 1016.00 1016.11 1016.18 1016.22 1016.22 1016.23 1016.26 1016.33 1016.45 1016.59 1016.74 1016.89 1017.01 1017.10 1017.16 1017.20
1008.63 1009.08 1009.73 1010.53 1011.37 1012.15 1012.79 1013.23 1013.49 1013.62 1013.69 1013.80 1013.99 1014.29 1014.67 1015.08 1015.45 1015.74 1015.89 1015.93 1015.88 1015.80 1015.74 1015.74 1015.81 1015.93 1016.08 1016.22 1016.32 1016.35 1016.34 1016.29 1016.25 1016.25 1016.30 1016.40 1016.56 1016.73 1016.91 1017.06 1017.18 1017.27 1017.34
1008.53 1009.11 1009.87 1010.75 1011.63 1012.42 1013.04 1013.44 1013.66 1013.75 1013.80 1013.90 1014.09 1014.39 1014.77 1015.17 1015.52 1015.78 1015.92 1015.94 1015.90 1015.83 1015.81 1015.85 1015.97 1016.13 1016.30 1016.44 1016.51 1016.50 1016.43 1016.32 1016.22 1016.17 1016.19 1016.28 1016.44 1016.63 1016.84 1017.03 1017.19 1017.33 1017.44
1008.47 1009.14 1009.98 1010.91 1011.82 1012.60 1013.20 1013.57 1013.77 1013.84 1013.89 1013.98 1014.17 1014.46 1014.82 1015.19 1015.51 1015.73 1015.84 1015.86 1015.82 1015.80 1015.83 1015.93 1016.10 1016.31 1016.51 1016.65 1016.69 1016.63 1016.50 1016.32 1016.16 1016.05 1016.03 1016.11 1016.26 1016.46 1016.69 1016.91 1017.12 1017.30 1017.46
1008.45 1009.17 1010.05 1011.00 1011.90 1012.68 1013.25 1013.62 1013.81 1013.89 1013.95 1014.05 1014.24 1014.52 1014.86 1015.19 1015.46 1015.64 1015.71 1015.72 1015.71 1015.72 1015.81 1015.98 1016.21 1016.46 1016.68 1016.81 1016.82 1016.72 1016.52 1016.29 1016.06 1015.91 1015.85 1015.89 1016.03 1016.24 1016.48 1016.73 1016.97 1017.19 1017.39
1008.46 1009.20 1010.08 1011.01 1011.90 1012.65 1013.21 1013.58 1013.78 1013.88 1013.97 1014.10 1014.30 1014.57 1014.88 1015.16 1015.38 1015.52 1015.56 1015.56 1015.56 1015.61 1015.75 1015.97 1016.25 1016.54 1016.77 1016.89 1016.88 1016.73 1016.48 1016.19 1015.92 1015.73 1015.64 1015.66 1015.78 1015.97 1016.21 1016.47 1016.72 1016.97 1017.20
1008.50 1009.21 1010.06 1010.96 1011.81 1012.53 1013.08 1013.45 1013.67 1013.81 1013.94 1014.10 1014.32 1014.59 1014.87 1015.12 1015.29 1015.38 1015.40 1015.38 1015.39 1015.47 1015.63 1015.89 1016.19 1016.49 1016.72 1016.83 1016.79 1016.61 1016.33 1016.01 1015.72 1015.50 1015.39 1015.40 1015.50 1015.69 1015.91 1016.16 1016.41 1016.65 1016.89
1008.55 1009.23 1010.02 1010.86 1011.66 1012.34 1012.86 1013.23 1013.48 1013.65 1013.82 1014.02 1014.26 1014.53 1014.79 1015.01 1015.15 1015.20 1015.19 1015.16 1015.17 1015.25 1015.42 1015.68 1015.99 1016.28 1016.49 1016.58 1016.52 1016.32 1016.03 1015.71 1015.42 1015.20 1015.10 1015.11 1015.21 1015.38 1015.59 1015.81 1016.03 1016.25 1016.47
1008.60 1009.23 1009.96 1010.72 1011.45 1012.07 1012.56 1012.92 1013.18 1013.38 1013.58 1013.81 1014.07 1014.35 1014.60 1014.79 1014.90 1014.93 1014.90 1014.86 1014.86 1014.93 1015.09 1015.34 1015.62 1015.89 1016.08 1016.14 1016.07 1015.87 1015.59 1015.29 1015.02 1014.84 1014.76 1014.78 1014.89 1015.06 1015.25 1015.44 1015.63 1015.82 1016.00
1008.65 1009.21 1009.86 1010.54 1011.18 1011.74 1012.18 1012.51 1012.77 1012.98 1013.20 1013.44 1013.71 1013.99 1014.23 1014.42 1014.52 1014.54 1014.50 1014.45 1014.44 1014.50 1014.64 1014.86 1015.11 1015.34 1015.49 1015.54 1015.46 1015.28 1015.03 1014.77 1014.55 1014.41 1014.37 1014.43 1014.56 1014.73 1014.91 1015.08 1015.23 1015.38 1015.52
1008.67 1009.17 1009.74 1010.32 1010.87 1011.35 1011.73 1012.02 1012.25 1012.45 1012.67 1012.91 1013.17 1013.44 1013.68 1013.86 1013.97 1013.99 1013.97 1013.93 1013.92 1013.96 1014.08 1014.27 1014.47 1014.67 1014.79 1014.82 1014.75 1014.60 1014.39 1014.18 1014.02 1013.94 1013.95 1014.05 1014.20 1014.38 1014.57 1014.72 1014.86 1014.96 1015.07
1008.66 1009.10 1009.58 1010.08 1010.53 1010.92 1011.23 1011.47 1011.66 1011.83 1012.01 1012.23 1012.47 1012.73 1012.96 1013.15 1013.27 1013.32 1013.32 1013.31 1013.31 1013.36 1013.47 1013.62 1013.79 1013.95 1014.06 1014.08 1014.02 1013.89 1013.73 1013.58 1013.47 1013.44 1013.50 1013.63 1013.81 1014.01 1014.20 1014.36 1014.49 1014.58 1014.65
1008.64 1009.01 1009.41 1009.81 1010.18 1010.49 1010.73 1010.91 1011.05 1011.17 1011.31 1011.48 1011.69 1011.91 1012.13 1012.32 1012.47 1012.56 1012.61 1012.63 1012.67 1012.74 1012.84 1012.98 1013.13 1013.26 1013.35 1013.38 1013.33 1013.23 1013.11 1012.99 1012.92 1012.93 1013.02 1013.17 1013.37 1013.59 1013.79 1013.96 1014.09 1014.18 1014.25
1008.62 1008.92 1009.24 1009.57 1009.86 1010.10 1010.29 1010.41 1010.50 1010.57 1010.65 1010.76 1010.91 1011.09 1011.29 1011.48 1011.65 1011.78 1011.89 1011.97 1012.05 1012.15 1012.26 1012.40 1012.54 1012.66 1012.73 1012.76 1012.72 1012.64 1012.54 1012.45 1012.40 1012.41 1012.49 1012.65 1012.85 1013.07 1013.28 1013.47 1013.62 1013.73 1013.81
1008.63 1008.86 1009.11 1009.37 1009.61 1009.81 1009.96 1010.05 1010.09 1010.11 1010.13 1010.17 1010.25 1010.38 1010.54 1010.72 1010.90 1011.07 1011.23 1011.37 1011.50 1011.63 1011.77 1011.91 1012.05 1012.16 1012.23 1012.25 1012.21 1012.14 1012.04 1011.95 1011.88 1011.87 1011.92 1012.05 1012.22 1012.43 1012.64 1012.85 1013.03 1013.17 1013.28
1008.70 1008.85 1009.03 1009.24 1009.45 1009.63 1009.77 1009.84 1009.86 1009.84 1009.80 1009.77 1009.77 1009.83 1009.93 1010.09 1010.27 1010.47 1010.67 1010.86 1011.04 1011.21 1011.38 1011.52 1011.65 1011.76 1011.82 1011.83 1011.79 1011.71 1011.60 1011.47 1011.37 1011.31 1011.31 1011.37 1011.49 1011.67 1011.87 1012.08 1012.28 1012.46 1012.60
1008.83 1008.90 1009.02 1009.19 1009.39 1009.58 1009.73 1009.81 1009.83 1009.77 1009.68 1009.57 1009.49 1009.47 1009.51 1009.61 1009.78 1009.99 1010.22 1010.45 1010.67 1010.88 1011.06 1011.21 1011.34 1011.43 1011.48 1011.48 1011.43 1011.33 1011.19 1011.03 1010.87 1010.74 1010.66 1010.65 1010.70 1010.82 1010.98 1011.19 1011.40 1011.60 1011.79
1009.02 1009.01 1009.08 1009.22 1009.41 1009.62 1009.80 1009.91 1009.93 1009.86 1009.72 1009.54 1009.38 1009.26 1009.22 1009.28 1009.41 1009.61 1009.86 1010.12 1010.37 1010.60 1010.79 1010.95 1011.07 1011.15 1011.19 1011.17 1011.11 1010.99 1010.82 1010.62 1010.41 1010.21 1010.04 1009.93 1009.90 1009.95 1010.07 1010.24 1010.45 1010.67 1010.88
1009.22 1009.15 1009.16 1009.28 1009.48 1009.71 1009.92 1010.06 1010.09 1010.01 1009.83 1009.59 1009.34 1009.14 1009.02 1009.01 1009.11 1009.29 1009.54 1009.82 1010.09 1010.34 1010.54 1010.70 1010.82 1010.89 1010.92 1010.90 1010.82 1010.69 1010.51 1010.28 1010.02 1009.75 1009.51 1009.31 1009.20 1009.16 1009.22 1009.34 1009.52 1009.73 1009.95
1009.40 1009.27 1009.24 1009.34 1009.54 1009.79 1010.02 1010.18 1010.22 1010.12 1009.90 1009.61 1009.29 1009.01 1008.82 1008.75 1008.81 1008.97 1009.22 1009.51 1009.80 1010.06 1010.28 1010.45 1010.57 1010.64 1010.67 1010.65 1010.58 1010.45 1010.27 1010.02 1009.73 1009.42 1009.12 1008.86 1008.67 1008.56 1008.54 1008.60 1008.74 1008.92 1009.12
1009.51 1009.33 1009.27 1009.35 1009.54 1009.79 1010.03 1010.19 1010.23 1010.12 1009.87 1009.52 1009.14 1008.80 1008.55 1008.44 1008.46 1008.62 1008.87 1009.17 1009.47 1009.76 1009.99 1010.18 1010.31 1010.39 1010.43 1010.43 1010.38 1010.28 1010.11 1009.88 1009.59 1009.27 1008.94 1008.63 1008.37 1008.20 1008.11 1008.11 1008.18 1008.31 1008.47
1009.51 1009.31 1009.23 1009.28 1009.45 1009.69 1009.91 1010.07 1010.09 1009.96 1009.68 1009.29 1008.87 1008.49 1008.20 1008.05 1008.05 1008.20 1008.46 1008.78 1009.11 1009.41 1009.68 1009.88 1010.03 1010.14 1010.21 1010.24 1010.23 1010.17 1010.05 1009.85 1009.60 1009.29 1008.96 1008.63 1008.34 1008.11 1007.96 1007.89 1007.90 1007.96 1008.07
1009.40 1009.20 1009.11 1009.15 1009.29 1009.49 1009.69 1009.82 1009.81 1009.65 1009.35 1008.94 1008.49 1008.09 1007.78 1007.61 1007.61 1007.76 1008.02 1008.36 1008.71 1009.04 1009.32 1009.56 1009.74 1009.88 1009.99 1010.06 1010.10 1010.10 1010.03 1009.90 1009.70 1009.44 1009.13 1008.81 1008.51 1008.26 1008.06 1007.93 1007.87 1007.87 1007.90
1009.20 1009.03 1008.95 1008.97 1009.08 1009.25 1009.41 1009.49 1009.46 1009.27 1008.95 1008.53 1008.08 1007.67 1007.36 1007.19 1007.19 1007.33 1007.60 1007.94 1008.30 1008.64 1008.95 1009.20 1009.41 1009.59 1009.73 1009.86 1009.95 1010.01 1010.02 1009.96 1009.83 1009.63 1009.37 1009.09 1008.80 1008.54 1008.32 1008.14 1008.02 1007.95 1007.92
1008.95 1008.84 1008.78 1008.80 1008.89 1009.01 1009.13 1009.17 1009.10 1008.90 1008.57 1008.16 1007.72 1007.32 1007.02 1006.85 1006.84 1006.98 1007.24 1007.56 1007.91 1008.25 1008.56 1008.82 1009.05 1009.25 1009.43 1009.59 1009.74 1009.86 1009.94 1009.95 1009.90 1009.77 1009.58 1009.35 1009.09 1008.85 1008.62 1008.42 1008.26 1008.13 1008.03
Thickness
5849 5843 5835 5830 5826 5823 5818 5814 5811 5808 5805 5803 5799 5795 5792 5789 5786 5784 5782 5780 5779 5778 5777 5774 5772 5770 5769 5768 5766 5764 5762 5761 5760 5758 5757 5755 5753 5752 5751 5751 5750 5750 5748
5852 5843 5835 5830 5827 5823 5819 5815 5811 5808 5805 5803 5799 5795 5791 5788 5785 5782 5780 5778 5777 5775 5774 5773 5771 5769 5767 5766 5765 5763 5761 5760 5759 5758 5756 5754 5753 5751 5750 5750 5751 5750 5748
5853 5843 5836 5831 5827 5823 5819 5815 5811 5807 5805 5802 5798 5794 5790 5786 5783 5781 5780 5778 5776 5774 5772 5770 5768 5767 5765 5764 5763 5763 5761 5760 5759 5759 5758 5757 5755 5752 5751 5750 5749 5749 5748
5851 5843 5837 5831 5827 5822 5817 5814 5810 5806 5803 5800 5796 5793 5789 5786 5783 5781 5779 5778 5776 5773 5771 5768 5766 5765 5763 5762 5762 5761 5761 5760 5759 5760 5760 5760 5758 5755 5753 5750 5749 5748 5747
5849 5842 5835 5829 5826 5821 5816 5812 5808 5804 5801 5799 5796 5793 5790 5787 5784 5781 5779 5777 5775 5773 5770 5768 5766 5764 5763 5762 5761 5760 5759 5759 5759 5760 5763 5765 5762 5757 5754 5751 5749 5748 5747
5848 5841 5832 5827 5823 5818 5814 5810 5807 5804 5801 5799 5796 5793 5791 5788 5785 5783 5780 5778 5775 5773 5771 5769 5767 5765 5763 5761 5760 5759 5757 5757 5758 5761 5763 5765 5762 5758 5755 5752 5750 5748 5747
5850 5841 5831 5826 5821 5817 5812 5808 5805 5803 5801 5798 5795 5793 5791 5789 5787 5784 5781 5779 5777 5774 5771 5769 5767 5765 5764 5762 5760 5758 5757 5756 5757 5761 5765 5766 5763 5759 5757 5753 5751 5749 5748
5851 5840 5830 5824 5819 5815 5812 5809 5805 5802 5800 5797 5794 5793 5791 5789 5787 5785 5782 5780 5778 5776 5773 5770 5767 5765 5764 5763 5762 5760 5758 5756 5759 5763 5767 5768 5765 5761 5759 5757 5753 5751 5749
5853 5839 5829 5823 5819 5815 5812 5809 5806 5802 5799 5797 5795 5793 5791 5789 5788 5786 5784 5781 5779 5777 5774 5771 5769 5766 5765 5764 5763 5762 5761 5759 5758 5762 5767 5769 5766 5764 5762 5760 5757 5754 5752
5851 5842 5833 5827 5821 5816 5813 5810 5806 5803 5799 5797 5795 5793 5791 5789 5788 5787 5785 5782 5780 5778 5775 5773 5771 5769 5767 5766 5765 5764 5763 5762 5761 5763 5767 5770 5767 5765 5763 5761 5759 5757 5755
5847 5843 5838 5832 5824 5819 5815 5811 5806 5802 5799 5796 5794 5792 5790 5789 5789 5788 5786 5784 5781 5779 5778 5776 5774 5772 5771 5770 5768 5766 5764 5764 5766 5768 5771 5772 5769 5766 5763 5761 5759 5759 5757
5841 5840 5840 5835 5828 5824 5821 5814 5809 5804 5801 5798 5796 5794 5791 5791 5792 5793 5790 5787 5784 5782 5780 5778 5777 5774 5773 5773 5774 5770 5767 5767 5768 5771 5773 5771 5769 5766 5764 5762 5760 5760 5758
5841 5839 5839 5836 5829 5825 5823 5817 5812 5809 5806 5801 5799 5797 5795 5794 5795 5795 5794 5789 5786 5783 5781 5779 5777 5775 5776 5777 5778 5777 5773 5771 5772 5773 5774 5770 5768 5766 5764 5762 5761 5760 5759
5838 5837 5836 5833 5827 5823 5822 5819 5814 5810 5808 5805 5802 5799 5797 5795 5794 5796 5795 5792 5788 5786 5784 5782 5780 5778 5777 5778 5780 5780 5778 5775 5775 5776 5774 5770 5768 5767 5765 5763 5761 5760 5759
5833 5833 5832 5829 5824 5819 5816 5814 5813 5809 5808 5805 5802 5799 5796 5794 5793 5794 5794 5792 5790 5788 5785 5783 5782 5781 5779 5779 5780 5780 5780 5779 5777 5775 5774 5771 5769 5768 5766 5764 5762 5761 5760
5828 5826 5827 5823 5819 5814 5810 5807 5806 5805 5802 5800 5800 5799 5796 5794 5792 5792 5791 5789 5787 5785 5785 5783 5780 5779 5779 5778 5777 5777 5779 5780 5781 5778 5775 5773 5770 5769 5767 5766 5764 5762 5761
5822 5820 5819 5816 5812 5807 5804 5801 5799 5798 5796 5796 5796 5796 5795 5793 5791 5789 5787 5786 5785 5782 5781 5778 5776 5775 5776 5777 5776 5776 5778 5780 5780 5779 5776 5774 5771 5770 5770 5769 5766 5764 5762
5817 5814 5813 5811 5808 5802 5798 5796 5795 5794 5793 5793 5793 5792 5790 5788 5786 5783 5781 5780 5780 5778 5776 5773 5770 5767 5766 5767 5770 5774 5777 5778 5778 5777 5775 5773 5771 5771 5772 5770 5768 5766 5763
5807 5805 5803 5801 5799 5795 5791 5789 5788 5788 5787 5788 5788 5788 5786 5785 5782 5778 5774 5773 5772 5770 5769 5767 5766 5762 5759 5759 5761 5766 5771 5774 5775 5775 5774 5773 5772 5771 5772 5772 5770 5768 5765
5795 5792 5789 5786 5783 5781 5780 5779 5778 5777 5778 5778 5778 5778 5778 5778 5776 5772 5769 5767 5764 5761 5761 5760 5758 5757 5754 5753 5752 5755 5761 5768 5772 5773 5773 5773 5771 5770 5771 5772 5771 5768 5765
5781 5779 5777 5774 5772 5769 5766 5764 5763 5764 5766 5767 5767 5767 5767 5766 5765 5762 5759 5757 5754 5751 5751 5751 5751 5749 5746 5746 5739 5739 5747 5759 5766 5770 5773 5772 5770 5770 5771 5770 5769 5767 5766
5770 5770 5769 5766 5764 5761 5758 5755 5753 5753 5756 5757 5758 5759 5758 5757 5754 5751 5748 5746 5744 5741 5740 5740 5739 5738 5737 5737 5730 5724 5725 5740 5754 5766 5769 5769 5767 5766 5766 5767 5766 5765 5764
5763 5763 5762 5759 5755 5751 5748 5746 5744 5745 5745 5745 5746 5748 5750 5750 5748 5744 5742 5739 5737 5734 5732 5733 5731 5728 5725 5727 5725 5717 5714 5721 5735 5750 5757 5760 5760 5760 5760 5761 5760 5760 5759
5754 5754 5752 5751 5748 5745 5741 5737 5734 5733 5733 5738 5740 5743 5744 5744 5741 5738 5735 5732 5729 5727 5725 5724 5724 5722 5718 5714 5714 5714 5716 5719 5718 5724 5736 5744 5748 5748 5749 5750 5751 5752 5753
5748 5745 5744 5742 5740 5739 5736 5733 5729 5728 5729 5731 5733 5734 5734 5735 5732 5729 5726 5724 5722 5719 5717 5715 5713 5712 5710 5706 5703 5704 5708 5712 5715 5711 5716 5724 5731 5737 5740 5741 5742 5744 5745
5744 5740 5738 5734 5732 5732 5731 5728 5725 5723 5722 5722 5722 5722 5723 5722 5721 5718 5715 5714 5712 5710 5708 5707 5705 5704 5702 5700 5699 5700 5701 5704 5706 5706 5706 5711 5716 5724 5731 5735 5737 5738 5737